www.pogodaiklimat.ru

АРХИВ ПОГОДЫ в Атланте

Время (UTC), дата Ветер
(напр.,м/с)
 
Видим.   Явления Облачность Т
(С)
Тd
(С)
f
(%)
Тe
(С)
Тes
(С)
Комфортность

P
(гПа)

Po
(гПа)
Тmin
(С)
Tmax
(С)
R
(мм)
SD
(см)
10:52 16.10 СЗ  13 км    10/10 150 м  +16.7  +15.6  93  +15  +15    1017.2  980.6         
11:52 16.10 СЗ  13 км    10/10 180 м  +14.4  +13.9  97  +13  +13    1018.3  981.6  +14.4  +21.1  2.0   
12:52 16.10 СЗ  6
{10} 
11 км    10/10 210 м  +13.0  +12.0  94  +10  +10    1019.0  982.2         
13:52 16.10 СЗ  16 км    10/10 300 м  +13.3  +11.1  87  +10  +10    1019.6  982.9         
14:52 16.10 СЗ  16 км    8/2 450 м
[средняя верхняя] 
+14.0  +10.0  77  +12  +12    1020.3  983.5         
15:52 16.10 СЗ  8
{12} 
16 км    8/2 600 м
[средняя верхняя] 
+15.0  +10.0  72  +13  +13    1020.2  983.5         
16:52 16.10 С  16 км    8/0 4500 м
[средняя верхняя] 
+18.3  +9.4  56  +18  +18    1019.8  982.9         
17:52 16.10 СЗ  16 км    8/0 4500 м
[средняя верхняя] 
+18.3  +8.9  54  +17  +18    1019.2  982.6  +12.8  +18.9     
18:52 16.10 СЗ  9
{12} 
16 км    5/0 4500 м
[средняя верхняя] 
+19.0  +8.0  49  +19  +19    1018.2  981.6         
19:52 16.10 С  8
{10} 
16 км    2/0 4500 м
[средняя верхняя] 
+20.6  +8.3  45  +21  +22  комфорт    981.6         
20:52 16.10 СЗ  6
{10} 
16 км    2/0 7500 м
[верхняя] 
+20.0  +7.8  45  +21  +22  комфорт  1018.3  981.6         
21:52 16.10 СЗ  16 км    2/0 7500 м
[верхняя] 
+18.9  +7.8  48  +19  +19    1018.3  981.6         
22:52 16.10 С  16 км    5/0 7500 м
[верхняя] 
+17.2  +7.2  52  +16  +17    1019.2  982.2         
23:52 16.10 С  16 км    5/0 7500 м
[верхняя] 
+15.6  +7.2  57  +14  +14    1020.0  982.9         
00:52 17.10 С  16 км    8/0 7500 м
[верхняя] 
+15.0  +7.2  60  +13  +13    1021.2  983.9         
01:52 17.10 С  16 км    8/0 7500 м
[верхняя] 
+14.4  +6.7  60  +13  +13    1022.2  984.8         
02:52 17.10 С  16 км    8/0 6000 м
[средняя верхняя] 
+14.0  +7.0  63  +12  +12    1022.8  985.5         
03:52 17.10 СВ  16 км    8/0 7500 м
[верхняя] 
+13.9  +6.7  62  +12  +12    1023.3  985.8         
04:52 17.10 СВ  16 км    8/0 7500 м
[верхняя] 
+13.3  +6.7  64  +11  +11    1023.3  986.1         
05:52 17.10 СВ  16 км    5/0 7500 м
[верхняя] 
+12.8  +6.1  64  +11  +11    1023.5  986.1         
06:52 17.10 В  16 км    5/0 7500 м
[верхняя] 
+12.2  +5.6  64  +10  +10    1023.6  986.1         
07:52 17.10 В  16 км    ясно  +11.1  +5.6  69  +8  +8    1023.6  986.1         
08:52 17.10 В  16 км    5/0 7500 м
[верхняя] 
+11.1  +5.6  69  +8  +8    1024.0  986.8         
09:52 17.10 СВ  16 км    5/0 7500 м
[верхняя] 
+10.6  +5.0  68  +7  +7    1024.4  987.1         
10:52 17.10 В  16 км    2/0 7500 м
[верхняя] 
+10.6  +4.4  65  +8  +8    1025.1  987.5         
11:52 17.10 СВ  16 км    2/0 7500 м
[верхняя] 
+11.1  +3.9  61  +8  +8    1025.9  988.4         
12:52 17.10 В  16 км    2/0 7500 м
[верхняя] 
+12.2  +4.4  59  +9  +9    1026.6  989.1         
13:52 17.10 В  16 км    2/0 7500 м
[верхняя] 
+13.9  +4.4  53  +11  +11    1026.9  989.4         
14:52 17.10 В  16 км    2/0 7500 м
[верхняя] 
+15.0  +4.4  49  +13  +13    1027.4  989.7         
15:52 17.10 В  6
{11} 
16 км    ясно  +16.7  +4.4  44  +16  +17    1027.4  989.7         
16:52 17.10 В  16 км    ясно  +17.8  +5.0  43  +17  +21    1026.7  989.4         
17:52 17.10 В  16 км    ясно  +18.3  +5.0  41  +19  +29    1025.9  988.4         
18:52 17.10 СВ  16 км    ясно  +19.4  +4.4  37  +19  +24    1024.6  987.5         
19:52 17.10 нст  16 км    ясно  +20.0  +4.4  36  +21  +28  комфорт  1024.3  986.8         
20:52 17.10 В  16 км    2/0 7500 м
[верхняя] 
+20.0  +4.4  36  +21  +27  комфорт  1024.1  986.8         
21:52 17.10 СВ  16 км    2/0 7500 м
[верхняя] 
+19.4  +4.4  37  +20  +22    1023.9  986.5         
22:52 17.10 В  16 км    2/0 7500 м
[верхняя] 
+17.2  +5.0  44  +17  +18    1023.8  986.5         
23:52 17.10 В  16 км    2/0 7500 м
[верхняя] 
+16.1  +6.1  51  +16  +16    1024.1  986.8         
00:52 18.10 В  16 км    2/0 7500 м
[верхняя] 
+14.4  +6.1  57  +13  +13    1024.5  987.1         
01:52 18.10 В  16 км    2/0 7500 м
[верхняя] 
+13.3  +6.7  64  +12  +12    1025.2  987.8         
02:52 18.10 В  16 км    2/0 7500 м
[верхняя] 
+12.8  +6.1  64  +11  +11    1025.7  988.1         
03:52 18.10 В  16 км    2/0 7500 м
[верхняя] 
+12.2  +7.2  71  +11  +11    1025.8  988.4         
04:52 18.10 В  16 км    2/0 7500 м
[верхняя] 
+11.1  +6.7  74  +9  +9    1025.5  988.1         
05:52 18.10 В  16 км    2/0 7500 м
[верхняя] 
+10.6  +6.1  74  +9  +9    1025.4  988.1         
06:52 18.10 В  16 км    ясно  +11.1  +6.7  74  +9  +9    1025.3  987.8         
07:52 18.10 В  16 км    ясно  +11.1  +6.1  71  +8  +8    1025.0  987.8         
08:52 18.10 В  16 км    ясно  +9.4  +6.1  80  +6  +6    1025.1  987.8         
09:52 18.10 В  16 км    ясно  +8.9  +5.6  80  +6  +6    1025.5  988.1         

 

Местоположение метеостанции Hartsfield-Jackson Atlanta International Airport: широта 33.6403 долгота -84.4269 высота над уровнем моря 313 м.

В архиве по умолчанию представлена погода в Атланте за последние 1-2 суток. Обновление информации о фактической погоде в базе происходит ежечасно! Архивные данные за месяц целиком и за предыдущие месяцы Вы можете получить, выбрав интересующий диапазон дат из раскрывающегося списка и нажав кнопку "Ввод!".

Внимание! Архив погоды МЕТАР в базе сайта в настоящее время начинается c 1 января 2013 г. Нет смысла пытаться выбрать более раннюю дату.

Внимание! Время в таблицах - всемирное. Для получения местного времени необходимо прибавить поправку, которая в Атланте равна -5 ч.

Ветер - указаны скорость ветра в м/с и направление, откуда дует ветер: С - северный, СВ - северо-восточный, В - восточный, ЮВ - юго-восточный, Ю - южный, ЮЗ - юго-западный, З - западный, СЗ - северо-западный.
Видимость - горизонтальная дальность видимости в метрах или километрах. При видимости от 1 до 10 км при отсутствии осадков обычно наблюдается дымка, при ухудшении видимости до 1 км и менее - туман. В сухую погоду видимость может ухудшаться дымом, пылью или мглою.
Атмосферные явления - указаны явления, наблюдавшиеся в указанный момент времени.
Облачность - указаны через наклонную черту верхняя и нижняя облачность в баллах и высота нижней границы облаков в метрах. Внимание: облачность, как и прочие метеорологические величины в США измеряются автоматическими метеостанциями. Указанные значения в баллах носят условный характер и показывают процент времени, в течение которого, в среднем, лазерный луч высотомера отражался от облаков обратно.
T - Температура воздуха - температура, измеренная на высоте 2 м над землей.
Td - Температура точки росы - температура, при понижении до которой содержащийся в воздухе водяной пар достигнет насыщения.
f - Относительная влажность воздуха - влажноcть воздуха, измеренная на высоте 2 м над землей.
Te - Эффективная температура - температура, которую ощущает одетый по сезону человек в тени. Характеристика душности погоды. При расчете учитывается влияние влажности воздуха и скорости ветра на теплоощущения человека.
Tes - Эффективная температура на солнце - температура, которую ощущает человек, с поправкой на солнечный нагрев. Характеристика знойности погоды. Зависит от высоты солнца над горизонтом, облачности и скорости ветра. Ночью, в пасмурную погоду, а также при ветре 12 м/с и более поправка равна нулю.
P - Атмосферное давление - приведенное к уровню моря атмосферное давление.
Po - Атмосферное давление - измеренное на уровне метеостанции атмосферное давление.
Tmin - Минимальная температура - минимум температуры воздуха на высоте 2 м над землей.
Tmax - Максимальная температура - максимум температуры воздуха на высоте 2 м над землей.
R - Количество осадков - Количество выпавших осадков за 3 или 6 часов, мм.
SD - Снежный покров - Высота снежного покрова, см.